| time (UTC) | temp C | wind direction | speed KPH | gust KPH | rain 1hr cm | rain 24hr cm | rain mn cm | humidity % | barometer mb |
| 20260510211309 | 28 | 285 | 3.2 | 9.7 | 0.00 | 0.00 | 0.00 | 33 | 1008.6 |
| 20260510210840 | 28 | 305 | 3.2 | 12.9 | 0.00 | 0.00 | 0.00 | 33 | 1008.6 |
| 20260510205949 | 28 | 249 | 6.4 | 11.3 | 0.00 | 0.00 | 0.00 | 34 | 1009.0 |
| 20260510205309 | 28 | 230 | 6.4 | 9.7 | 0.00 | 0.00 | 0.00 | 33 | 1008.6 |
| 20260510204629 | 28 | 253 | 3.2 | 11.3 | 0.00 | 0.00 | 0.00 | 35 | 1008.6 |
| 20260510204203 | 28 | 296 | 4.8 | 11.3 | 0.00 | 0.00 | 0.00 | 32 | 1008.6 |
| 20260510203310 | 28 | 343 | 4.8 | 11.3 | 0.00 | 0.00 | 0.00 | 34 | 1009.0 |
| 20260510202629 | 29 | 232 | 6.4 | 11.3 | 0.00 | 0.00 | 0.00 | 34 | 1009.0 |
| 20260510201950 | 28 | 271 | 3.2 | 9.7 | 0.00 | 0.00 | 0.00 | 34 | 1008.6 |
| 20260510201309 | 28 | 222 | 6.4 | 12.9 | 0.00 | 0.00 | 0.00 | 34 | 1009.0 |
| 20260510200629 | 28 | 233 | 6.4 | 12.9 | 0.00 | 0.00 | 0.00 | 33 | 1009.0 |
| 20260510195949 | 28 | 289 | 4.8 | 11.3 | 0.00 | 0.00 | 0.00 | 34 | 1009.0 |
| 20260510195309 | 28 | 229 | 4.8 | 8.0 | 0.00 | 0.00 | 0.00 | 32 | 1009.0 |
| 20260510194629 | 28 | 3 | 3.2 | 8.0 | 0.00 | 0.00 | 0.00 | 33 | 1009.0 |
| 20260510193949 | 27 | 268 | 3.2 | 11.3 | 0.00 | 0.00 | 0.00 | 34 | 1009.0 |
| 20260510193309 | 27 | 318 | 3.2 | 8.0 | 0.00 | 0.00 | 0.00 | 36 | 1009.0 |
| 20260510192629 | 27 | 296 | 3.2 | 8.0 | 0.00 | 0.00 | 0.00 | 35 | 1009.0 |
| 20260510191949 | 27 | 248 | 3.2 | 11.3 | 0.00 | 0.00 | 0.00 | 35 | 1009.3 |
| 20260510191310 | 27 | 284 | 4.8 | 16.1 | 0.00 | 0.00 | 0.00 | 36 | 1009.3 |
| 20260510190630 | 28 | 235 | 9.7 | 16.1 | 0.00 | 0.00 | 0.00 | 34 | 1009.3 |
| 20260510185950 | 28 | 137 | 3.2 | 6.4 | 0.00 | 0.00 | 0.00 | 35 | 1009.3 |
| 20260510185310 | 27 | 246 | 3.2 | 8.0 | 0.00 | 0.00 | 0.00 | 36 | 1009.7 |
| 20260510184843 | 26 | 9 | 4.8 | 9.7 | 0.00 | 0.00 | 0.00 | 37 | 1009.7 |
| 20260510183950 | 26 | 356 | 4.8 | 9.7 | 0.00 | 0.00 | 0.00 | 38 | 1009.7 |
| 20260510183310 | 27 | 4 | 3.2 | 6.4 | 0.00 | 0.00 | 0.00 | 39 | 1009.7 |
| 20260510182845 | 26 | 309 | 1.6 | 8.0 | 0.00 | 0.00 | 0.00 | 40 | 1009.7 |
| 20260510181950 | 26 | 246 | 4.8 | 9.7 | 0.00 | 0.00 | 0.00 | 40 | 1009.7 |
| 20260510181310 | 26 | 240 | 6.4 | 9.7 | 0.00 | 0.00 | 0.00 | 39 | 1009.7 |
| 20260510180842 | 27 | 345 | 4.8 | 11.3 | 0.00 | 0.00 | 0.00 | 38 | 1009.7 |
| 20260510175950 | 27 | 259 | 3.2 | 8.0 | 0.00 | 0.00 | 0.00 | 42 | 1009.7 |
| 20260510175310 | 26 | 51 | 3.2 | 11.3 | 0.00 | 0.00 | 0.00 | 41 | 1009.7 |
| 20260510174630 | 27 | 12 | 4.8 | 11.3 | 0.00 | 0.00 | 0.00 | 41 | 1009.7 |
| 20260510173950 | 26 | 11 | 3.2 | 9.7 | 0.00 | 0.00 | 0.00 | 44 | 1009.7 |
| 20260510173520 | 26 | 69 | 3.2 | 14.5 | 0.00 | 0.00 | 0.00 | 42 | 1009.7 |
| 20260510172630 | 27 | 350 | 3.2 | 9.7 | 0.00 | 0.00 | 0.00 | 42 | 1009.7 |
| 20260510171951 | 26 | 153 | 3.2 | 11.3 | 0.00 | 0.00 | 0.00 | 42 | 1010.0 |
| 20260510171311 | 26 | 329 | 6.4 | 12.9 | 0.00 | 0.00 | 0.00 | 42 | 1010.0 |
| 20260510170630 | 27 | 0 | 6.4 | 12.9 | 0.00 | 0.00 | 0.00 | 40 | 1010.0 |
| 20260510170203 | 28 | 186 | 3.2 | 12.9 | 0.00 | 0.00 | 0.00 | 42 | 1010.0 |
| 20260510165310 | 27 | 198 | 6.4 | 14.5 | 0.00 | 0.00 | 0.00 | 42 | 1010.0 |
| 20260510164630 | 27 | 255 | 8.0 | 14.5 | 0.00 | 0.00 | 0.00 | 43 | 1010.0 |
| 20260510163950 | 26 | 332 | 3.2 | 8.0 | 0.00 | 0.00 | 0.00 | 46 | 1010.0 |
| 20260510163311 | 26 | 342 | 3.2 | 14.5 | 0.00 | 0.00 | 0.00 | 48 | 1010.3 |
| 20260510162630 | 25 | 352 | 8.0 | 14.5 | 0.00 | 0.00 | 0.00 | 46 | 1010.3 |
| 20260510161950 | 26 | 69 | 3.2 | 6.4 | 0.00 | 0.00 | 0.00 | 49 | 1010.3 |
| 20260510161523 | 25 | 102 | 1.6 | 9.7 | 0.00 | 0.00 | 0.00 | 48 | 1010.3 |
| 20260510160843 | 25 | 40 | 3.2 | 11.3 | 0.00 | 0.00 | 0.00 | 50 | 1010.3 |
| 20260510155951 | 25 | 45 | 3.2 | 16.1 | 0.00 | 0.00 | 0.00 | 52 | 1010.3 |
| 20260510155310 | 25 | 41 | 4.8 | 11.3 | 0.00 | 0.00 | 0.00 | 52 | 1010.7 |
| 20260510154631 | 25 | 316 | 4.8 | 9.7 | 0.00 | 0.00 | 0.00 | 56 | 1010.7 |
| 20260510153951 | 25 | 93 | 6.4 | 12.9 | 0.00 | 0.00 | 0.00 | 53 | 1010.7 |
| 20260510153310 | 24 | 340 | 3.2 | 12.9 | 0.00 | 0.00 | 0.00 | 55 | 1010.7 |
| 20260510152630 | 25 | 21 | 3.2 | 8.0 | 0.00 | 0.00 | 0.00 | 54 | 1010.7 |
| 20260510151950 | 25 | 281 | 3.2 | 9.7 | 0.00 | 0.00 | 0.00 | 56 | 1010.3 |
| 20260510151310 | 25 | 349 | 6.4 | 9.7 | 0.00 | 0.00 | 0.00 | 56 | 1010.3 |
| 20260510150630 | 24 | 128 | 3.2 | 9.7 | 0.00 | 0.00 | 0.00 | 59 | 1010.3 |
| 20260510145950 | 23 | 19 | 4.8 | 12.9 | 0.00 | 0.00 | 0.00 | 59 | 1010.7 |
| 20260510145520 | 23 | 42 | 3.2 | 11.3 | 0.00 | 0.00 | 0.00 | 59 | 1010.3 |
| 20260510144841 | 23 | 25 | 8.0 | 11.3 | 0.00 | 0.00 | 0.00 | 62 | 1010.3 |
| 20260510143951 | 23 | 53 | 4.8 | 9.7 | 0.00 | 0.00 | 0.00 | 62 | 1010.3 |
| 20260510143310 | 23 | 23 | 4.8 | 9.7 | 0.00 | 0.00 | 0.00 | 63 | 1010.3 |
| 20260510142630 | 23 | 38 | 4.8 | 9.7 | 0.00 | 0.00 | 0.00 | 63 | 1010.3 |
| 20260510141951 | 23 | 0 | 3.2 | 8.0 | 0.00 | 0.00 | 0.00 | 65 | 1010.3 |
| 20260510141311 | 22 | 43 | 3.2 | 9.7 | 0.00 | 0.00 | 0.00 | 66 | 1010.3 |
| 20260510140844 | 22 | 4 | 6.4 | 9.7 | 0.00 | 0.00 | 0.00 | 68 | 1010.3 |
| 20260510135950 | 22 | 2 | 6.4 | 9.7 | 0.00 | 0.00 | 0.00 | 65 | 1010.3 |
| 20260510135310 | 22 | 335 | 1.6 | 8.0 | 0.00 | 0.00 | 0.00 | 66 | 1010.3 |
| 20260510134630 | 22 | 312 | 1.6 | 6.4 | 0.00 | 0.00 | 0.00 | 69 | 1010.3 |
| 20260510133950 | 22 | 278 | 1.6 | 4.8 | 0.00 | 0.00 | 0.00 | 68 | 1010.3 |
| 20260510133310 | 21 | 23 | 3.2 | 9.7 | 0.00 | 0.00 | 0.00 | 70 | 1010.3 |
| 20260510132630 | 22 | 4 | 4.8 | 9.7 | 0.00 | 0.00 | 0.00 | 70 | 1010.0 |
| 20260510131950 | 22 | 66 | 1.6 | 8.0 | 0.00 | 0.00 | 0.00 | 70 | 1010.0 |
| 20260510131310 | 21 | 13 | 3.2 | 6.4 | 0.00 | 0.00 | 0.00 | 70 | 1010.0 |
| 20260510130840 | 21 | 208 | 1.6 | 8.0 | 0.00 | 0.00 | 0.00 | 71 | 1010.0 |
| 20260510125951 | 21 | 355 | 4.8 | 8.0 | 0.00 | 0.00 | 0.00 | 73 | 1010.0 |
| 20260510125310 | 21 | 206 | 1.6 | 6.4 | 0.00 | 0.00 | 0.00 | 74 | 1010.0 |
| 20260510124630 | 20 | 327 | 3.2 | 4.8 | 0.00 | 0.00 | 0.00 | 77 | 1010.0 |
| 20260510123951 | 20 | 287 | 1.6 | 4.8 | 0.00 | 0.00 | 0.00 | 79 | 1010.0 |
| 20260510123311 | 20 | 295 | 1.6 | 11.3 | 0.00 | 0.00 | 0.00 | 81 | 1010.0 |
| 20260510122630 | 19 | 276 | 3.2 | 9.7 | 0.00 | 0.00 | 0.00 | 82 | 1009.7 |
| 20260510121950 | 19 | 280 | 3.2 | 9.7 | 0.00 | 0.00 | 0.00 | 83 | 1009.7 |
| 20260510121520 | 18 | 295 | 3.2 | 6.4 | 0.00 | 0.00 | 0.00 | 86 | 1009.7 |
| 20260510120630 | 18 | 258 | 4.8 | 6.4 | 0.00 | 0.00 | 0.00 | 88 | 1009.7 |
| 20260510115950 | 17 | 279 | 1.6 | 4.8 | 0.00 | 0.00 | 0.00 | 90 | 1009.7 |
| 20260510115310 | 17 | 280 | 1.6 | 6.4 | 0.00 | 0.00 | 0.00 | 92 | 1009.7 |
| 20260510114631 | 17 | 247 | 3.2 | 4.8 | 0.00 | 0.00 | 0.00 | 93 | 1009.3 |
| 20260510113950 | 17 | 241 | 3.2 | 4.8 | 0.00 | 0.00 | 0.00 | 94 | 1009.3 |
| 20260510113310 | 17 | 221 | 3.2 | 6.4 | 0.00 | 0.00 | 0.00 | 94 | 1009.3 |
| 20260510112630 | 17 | 215 | 1.6 | 4.8 | 0.00 | 0.00 | 0.00 | 93 | 1009.3 |
| 20260510112205 | 17 | 219 | 3.2 | 6.4 | 0.00 | 0.00 | 0.00 | 94 | 1009.0 |
| 20260510111310 | 17 | 223 | 3.2 | 6.4 | 0.00 | 0.00 | 0.00 | 94 | 1009.0 |
| 20260510110841 | 16 | 240 | 1.6 | 4.8 | 0.00 | 0.00 | 0.00 | 95 | 1009.0 |
| 20260510105950 | 16 | 245 | 1.6 | 4.8 | 0.00 | 0.00 | 0.00 | 95 | 1009.0 |
| 20260510105310 | 16 | 219 | 1.6 | 6.4 | 0.00 | 0.00 | 0.00 | 95 | 1009.0 |
| 20260510104843 | 16 | 201 | 3.2 | 6.4 | 0.00 | 0.00 | 0.00 | 95 | 1009.0 |
| 20260510103950 | 16 | 253 | 3.2 | 6.4 | 0.00 | 0.00 | 0.00 | 95 | 1008.6 |
| 20260510103519 | 16 | 268 | 3.2 | 6.4 | 0.00 | 0.00 | 0.00 | 95 | 1008.3 |
| 20260510102630 | 16 | 278 | 1.6 | 4.8 | 0.00 | 0.00 | 0.00 | 95 | 1008.3 |
| 20260510101950 | 16 | 271 | 1.6 | 6.4 | 0.00 | 0.00 | 0.00 | 95 | 1008.3 |
| 20260510101310 | 16 | 269 | 3.2 | 8.0 | 0.00 | 0.00 | 0.00 | 95 | 1007.9 |
| 20260510100630 | 16 | 272 | 1.6 | 6.4 | 0.00 | 0.00 | 0.00 | 95 | 1007.9 |
| 20260510095950 | 16 | 234 | 3.2 | 8.0 | 0.00 | 0.00 | 0.00 | 95 | 1007.9 |
| 20260510095310 | 16 | 226 | 3.2 | 8.0 | 0.00 | 0.00 | 0.00 | 94 | 1007.9 |
| 20260510094630 | 16 | 221 | 3.2 | 4.8 | 0.00 | 0.00 | 0.00 | 95 | 1007.9 |
| 20260510094159 | 16 | 260 | 3.2 | 6.4 | 0.00 | 0.00 | 0.00 | 95 | 1007.9 |
| 20260510093311 | 16 | 222 | 4.8 | 9.7 | 0.00 | 0.00 | 0.00 | 94 | 1007.9 |
| 20260510092630 | 16 | 223 | 4.8 | 9.7 | 0.00 | 0.00 | 0.00 | 94 | 1007.6 |
| 20260510091950 | 17 | 198 | 4.8 | 8.0 | 0.00 | 0.00 | 0.00 | 93 | 1007.6 |
| 20260510091310 | 17 | 207 | 3.2 | 4.8 | 0.00 | 0.00 | 0.00 | 93 | 1007.3 |
| 20260510090843 | 17 | 248 | 3.2 | 8.0 | 0.00 | 0.00 | 0.00 | 93 | 1007.6 |
| 20260510085950 | 17 | 254 | 3.2 | 8.0 | 0.00 | 0.00 | 0.00 | 93 | 1007.3 |
| 20260510085310 | 17 | 243 | 3.2 | 6.4 | 0.00 | 0.00 | 0.00 | 93 | 1007.3 |
| 20260510084630 | 17 | 282 | 3.2 | 4.8 | 0.00 | 0.00 | 0.00 | 93 | 1007.3 |
| 20260510083950 | 17 | 284 | 3.2 | 6.4 | 0.00 | 0.00 | 0.00 | 93 | 1007.3 |
| 20260510083311 | 17 | 286 | 1.6 | 4.8 | 0.00 | 0.00 | 0.00 | 94 | 1007.3 |
| 20260510082630 | 16 | 288 | 1.6 | 6.4 | 0.00 | 0.00 | 0.00 | 94 | 1007.3 |
| 20260510081950 | 17 | 245 | 3.2 | 6.4 | 0.00 | 0.00 | 0.00 | 94 | 1007.3 |
| 20260510081310 | 17 | 236 | 3.2 | 6.4 | 0.00 | 0.00 | 0.00 | 94 | 1007.3 |
| 20260510080630 | 16 | 204 | 3.2 | 4.8 | 0.00 | 0.00 | 0.00 | 95 | 1007.3 |
| 20260510075950 | 16 | 221 | 3.2 | 4.8 | 0.00 | 0.00 | 0.00 | 95 | 1006.9 |
| 20260510075311 | 16 | 223 | 3.2 | 4.8 | 0.00 | 0.00 | 0.00 | 95 | 1006.9 |
| 20260510074840 | 17 | 221 | 1.6 | 4.8 | 0.00 | 0.00 | 0.00 | 94 | 1006.9 |
| 20260510073950 | 17 | 222 | 3.2 | 4.8 | 0.00 | 0.00 | 0.00 | 94 | 1006.9 |
| 20260510073310 | 17 | 211 | 3.2 | 4.8 | 0.00 | 0.00 | 0.00 | 94 | 1006.9 |
| 20260510072842 | 17 | 203 | 1.6 | 4.8 | 0.00 | 0.00 | 0.00 | 94 | 1006.9 |
| 20260510071950 | 17 | 211 | 3.2 | 4.8 | 0.00 | 0.00 | 0.00 | 94 | 1006.9 |
| 20260510071310 | 17 | 198 | 1.6 | 3.2 | 0.00 | 0.00 | 0.00 | 95 | 1006.9 |
| 20260510070630 | 17 | 213 | 1.6 | 4.8 | 0.00 | 0.00 | 0.00 | 95 | 1006.9 |
| 20260510065950 | 17 | 207 | 3.2 | 4.8 | 0.00 | 0.00 | 0.00 | 95 | 1007.3 |
| 20260510065310 | 17 | 218 | 3.2 | 4.8 | 0.00 | 0.00 | 0.00 | 96 | 1007.3 |
| 20260510064630 | 16 | 206 | 3.2 | 4.8 | 0.00 | 0.00 | 0.00 | 98 | 1006.9 |
| 20260510063950 | 16 | 180 | 1.6 | 3.2 | 0.00 | 0.00 | 0.00 | 98 | 1006.9 |
| 20260510063310 | 16 | 209 | 1.6 | 3.2 | 0.00 | 0.00 | 0.00 | 96 | 1006.9 |
| 20260510062630 | 17 | 180 | 0.0 | 3.2 | 0.00 | 0.00 | 0.00 | 97 | 1006.9 |
| 20260510061951 | 17 | 279 | 1.6 | 3.2 | 0.00 | 0.00 | 0.00 | 96 | 1006.9 |
| 20260510061310 | 17 | 248 | 1.6 | 1.6 | 0.00 | 0.00 | 0.00 | 96 | 1006.9 |
| 20260510060630 | 17 | 280 | 1.6 | 3.2 | 0.00 | 0.00 | 0.00 | 96 | 1006.9 |
| 20260510055950 | 17 | 195 | 1.6 | 3.2 | 0.00 | 0.00 | 0.00 | 97 | 1006.9 |
| 20260510055310 | 17 | 201 | 1.6 | 3.2 | 0.00 | 0.00 | 0.00 | 95 | 1007.3 |
| 20260510054630 | 17 | 192 | 1.6 | 3.2 | 0.00 | 0.00 | 0.00 | 96 | 1007.3 |
| 20260510053950 | 17 | 196 | 1.6 | 3.2 | 0.00 | 0.00 | 0.00 | 97 | 1007.3 |
| 20260510053310 | 17 | 169 | 1.6 | 3.2 | 0.00 | 0.00 | 0.00 | 96 | 1007.3 |
| 20260510052843 | 17 | 164 | 1.6 | 3.2 | 0.00 | 0.00 | 0.00 | 96 | 1007.3 |
| 20260510051950 | 17 | 198 | 1.6 | 3.2 | 0.00 | 0.00 | 0.00 | 97 | 1007.6 |
| 20260510051519 | 17 | 172 | 1.6 | 3.2 | 0.00 | 0.00 | 0.00 | 95 | 1007.3 |
| 20260510050630 | 17 | 195 | 1.6 | 3.2 | 0.00 | 0.00 | 0.00 | 96 | 1007.3 |
| 20260510045950 | 17 | 183 | 1.6 | 3.2 | 0.00 | 0.00 | 0.00 | 95 | 1007.6 |
| 20260510045310 | 17 | 196 | 0.0 | 3.2 | 0.00 | 0.00 | 0.00 | 95 | 1007.6 |
| 20260510044631 | 17 | 183 | 1.6 | 3.2 | 0.00 | 0.00 | 0.00 | 96 | 1007.6 |
| 20260510044203 | 17 | 173 | 1.6 | 3.2 | 0.00 | 0.00 | 0.00 | 95 | 1007.6 |
| 20260510043310 | 17 | 187 | 3.2 | 3.2 | 0.00 | 0.00 | 0.00 | 93 | 1007.6 |
| 20260510042844 | 17 | 165 | 1.6 | 4.8 | 0.00 | 0.00 | 0.00 | 93 | 1007.6 |
| 20260510041951 | 17 | 167 | 1.6 | 3.2 | 0.00 | 0.00 | 0.00 | 93 | 1007.3 |
| 20260510041310 | 17 | 165 | 1.6 | 3.2 | 0.00 | 0.00 | 0.00 | 93 | 1007.3 |
| 20260510040630 | 17 | 193 | 1.6 | 3.2 | 0.00 | 0.00 | 0.00 | 92 | 1007.3 |
| 20260510035950 | 18 | 221 | 1.6 | 3.2 | 0.00 | 0.00 | 0.00 | 92 | 1007.3 |
| 20260510035522 | 17 | 169 | 1.6 | 3.2 | 0.00 | 0.00 | 0.00 | 92 | 1007.3 |
| 20260510034630 | 17 | 177 | 1.6 | 3.2 | 0.00 | 0.00 | 0.00 | 92 | 1007.3 |
| 20260510034203 | 17 | 183 | 1.6 | 3.2 | 0.00 | 0.00 | 0.00 | 94 | 1007.3 |
| 20260510033310 | 17 | 190 | 1.6 | 3.2 | 0.00 | 0.00 | 0.00 | 93 | 1007.3 |
| 20260510032631 | 17 | 246 | 1.6 | 3.2 | 0.00 | 0.00 | 0.00 | 91 | 1007.3 |
| 20260510031950 | 18 | 205 | 0.0 | 3.2 | 0.00 | 0.00 | 0.00 | 90 | 1006.9 |
| 20260510031310 | 18 | 220 | 1.6 | 4.8 | 0.00 | 0.00 | 0.00 | 91 | 1006.9 |
| 20260510030631 | 17 | 191 | 1.6 | 4.8 | 0.00 | 0.00 | 0.00 | 94 | 1006.9 |
| 20260510025950 | 17 | 174 | 1.6 | 3.2 | 0.00 | 0.00 | 0.00 | 94 | 1006.9 |
| 20260510025310 | 17 | 188 | 1.6 | 3.2 | 0.00 | 0.00 | 0.00 | 93 | 1006.9 |
| 20260510024630 | 17 | 202 | 1.6 | 3.2 | 0.00 | 0.00 | 0.00 | 94 | 1006.9 |
| 20260510023950 | 17 | 229 | 1.6 | 3.2 | 0.00 | 0.00 | 0.00 | 93 | 1006.9 |
| 20260510023310 | 17 | 210 | 1.6 | 3.2 | 0.00 | 0.00 | 0.00 | 93 | 1006.9 |
| 20260510022630 | 17 | 217 | 1.6 | 3.2 | 0.00 | 0.00 | 0.00 | 93 | 1006.9 |
| 20260510021951 | 17 | 256 | 1.6 | 1.6 | 0.00 | 0.00 | 0.00 | 93 | 1006.9 |
| 20260510021521 | 17 | 196 | 1.6 | 1.6 | 0.00 | 0.00 | 0.00 | 93 | 1006.6 |
| 20260510020630 | 18 | 44 | 0.0 | 1.6 | 0.00 | 0.00 | 0.00 | 92 | 1006.6 |
| 20260510015950 | 18 | 286 | 0.0 | 3.2 | 0.00 | 0.00 | 0.00 | 92 | 1006.9 |
| 20260510015310 | 18 | 164 | 1.6 | 3.2 | 0.00 | 0.00 | 0.00 | 91 | 1006.9 |
| 20260510014630 | 18 | 98 | 0.0 | 1.6 | 0.00 | 0.00 | 0.00 | 89 | 1006.6 |
| 20260510013950 | 18 | 165 | 1.6 | 3.2 | 0.00 | 0.00 | 0.00 | 89 | 1006.2 |
| 20260510013310 | 18 | 154 | 1.6 | 3.2 | 0.00 | 0.00 | 0.00 | 90 | 1006.2 |
| 20260510012630 | 18 | 150 | 1.6 | 3.2 | 0.00 | 0.00 | 0.00 | 91 | 1006.2 |
| 20260510011950 | 18 | 174 | 1.6 | 3.2 | 0.00 | 0.00 | 0.00 | 90 | 1006.2 |
| 20260510011310 | 18 | 147 | 1.6 | 3.2 | 0.00 | 0.00 | 0.00 | 90 | 1006.2 |
| 20260510010630 | 18 | 90 | 1.6 | 3.2 | 0.00 | 0.00 | 0.00 | 88 | 1006.2 |
| 20260510005950 | 18 | 141 | 1.6 | 3.2 | 0.00 | 0.00 | 0.00 | 88 | 1006.2 |
| 20260510005310 | 19 | 161 | 1.6 | 3.2 | 0.00 | 0.00 | 0.00 | 87 | 1006.2 |
| 20260510004630 | 19 | 121 | 1.6 | 1.6 | 0.00 | 0.00 | 0.00 | 87 | 1005.9 |
| 20260510003950 | 19 | 147 | 1.6 | 1.6 | 0.00 | 0.00 | 0.00 | 84 | 1005.9 |
| 20260510003310 | 20 | 154 | 1.6 | 1.6 | 0.00 | 0.00 | 0.00 | 84 | 1005.9 |
| 20260510002630 | 20 | 172 | 1.6 | 1.6 | 0.00 | 0.00 | 0.00 | 83 | 1005.9 |
| 20260510002202 | 20 | 139 | 1.6 | 3.2 | 0.00 | 0.00 | 0.00 | 82 | 1005.9 |
| 20260510001523 | 20 | 176 | 1.6 | 3.2 | 0.00 | 0.00 | 0.00 | 82 | 1005.9 |
| 20260510000630 | 20 | 163 | 1.6 | 3.2 | 0.00 | 0.00 | 0.00 | 80 | 1005.9 |
| 20260509235950 | 20 | 189 | 1.6 | 1.6 | 0.00 | 0.00 | 0.00 | 82 | 1005.9 |
| 20260509235311 | 20 | 166 | 0.0 | 3.2 | 0.00 | 0.00 | 0.00 | 80 | 1005.9 |
| 20260509234630 | 21 | 168 | 1.6 | 3.2 | 0.00 | 0.00 | 0.00 | 79 | 1005.9 |
| 20260509233950 | 21 | 190 | 1.6 | 3.2 | 0.00 | 0.00 | 0.00 | 76 | 1005.6 |
| 20260509233521 | 21 | 174 | 1.6 | 3.2 | 0.00 | 0.00 | 0.00 | 73 | 1005.6 |
| 20260509232630 | 22 | 251 | 1.6 | 6.4 | 0.00 | 0.00 | 0.00 | 71 | 1005.2 |
| 20260509231950 | 22 | 205 | 3.2 | 6.4 | 0.00 | 0.00 | 0.00 | 71 | 1005.6 |
| 20260509231523 | 22 | 246 | 3.2 | 6.4 | 0.00 | 0.00 | 0.00 | 70 | 1005.2 |
| 20260509230844 | 22 | 194 | 1.6 | 8.0 | 0.00 | 0.00 | 0.00 | 71 | 1005.2 |
| 20260509225950 | 22 | 227 | 3.2 | 8.0 | 0.00 | 0.00 | 0.00 | 69 | 1005.2 |
| 20260509225311 | 22 | 205 | 3.2 | 6.4 | 0.00 | 0.00 | 0.00 | 68 | 1005.2 |
| 20260509224630 | 22 | 247 | 3.2 | 4.8 | 0.00 | 0.00 | 0.00 | 68 | 1005.2 |
| 20260509223950 | 22 | 202 | 1.6 | 8.0 | 0.00 | 0.00 | 0.00 | 69 | 1005.2 |
| 20260509223310 | 22 | 217 | 4.8 | 8.0 | 0.00 | 0.00 | 0.00 | 69 | 1005.2 |
| 20260509222630 | 22 | 221 | 3.2 | 6.4 | 0.00 | 0.00 | 0.00 | 70 | 1005.2 |
| 20260509221950 | 22 | 217 | 4.8 | 11.3 | 0.00 | 0.00 | 0.00 | 70 | 1005.2 |
| 20260509221310 | 22 | 239 | 6.4 | 11.3 | 0.00 | 0.00 | 0.00 | 69 | 1005.2 |
| 20260509220631 | 22 | 229 | 6.4 | 9.7 | 0.00 | 0.00 | 0.00 | 69 | 1005.6 |
| 20260509220200 | 22 | 214 | 3.2 | 9.7 | 0.00 | 0.00 | 0.00 | 68 | 1005.2 |
| 20260509215310 | 22 | 234 | 4.8 | 9.7 | 0.00 | 0.00 | 0.00 | 68 | 1005.2 |
| 20260509214630 | 22 | 193 | 3.2 | 11.3 | 0.00 | 0.00 | 0.00 | 68 | 1005.2 |
| 20260509213950 | 22 | 272 | 3.2 | 11.3 | 0.00 | 0.00 | 0.00 | 67 | 1005.2 |
| 20260509213310 | 22 | 204 | 4.8 | 9.7 | 0.00 | 0.00 | 0.00 | 68 | 1005.2 |
| 20260509212630 | 22 | 202 | 4.8 | 11.3 | 0.00 | 0.00 | 0.00 | 69 | 1005.2 |
| 20260509211950 | 22 | 241 | 4.8 | 11.3 | 0.00 | 0.00 | 0.00 | 67 | 1005.2 |